TimeCST,TemperatureF,Dew PointF,Humidity,Sea Level PressureIn,VisibilityMPH,Wind Direction,Wind SpeedMPH,Gust SpeedMPH,PrecipitationIn,Events,Conditions,WindDirDegrees,DateUTC
12:53 AM,60.1,57.0,90,29.98,7.0,SSW,5.8,-,N/A,,Overcast,210,2014-02-19 06:53:00
1:53 AM,59.0,57.0,93,29.97,8.0,SSW,8.1,-,N/A,,Mostly Cloudy,210,2014-02-19 07:53:00
2:53 AM,57.9,55.9,93,29.96,9.0,SSW,8.1,-,N/A,,Partly Cloudy,210,2014-02-19 08:53:00
3:53 AM,57.9,55.9,93,29.97,10.0,SW,6.9,-,N/A,,Mostly Cloudy,220,2014-02-19 09:53:00
4:53 AM,60.1,55.9,86,29.99,10.0,West,4.6,-,N/A,,Mostly Cloudy,260,2014-02-19 10:53:00
5:53 AM,57.9,55.0,90,29.99,10.0,SW,5.8,-,N/A,,Mostly Cloudy,220,2014-02-19 11:53:00
6:14 AM,60.8,55.4,82,30.01,10.0,WSW,3.5,-,N/A,,Mostly Cloudy,250,2014-02-19 12:14:00
6:53 AM,60.1,55.9,86,30.01,10.0,WSW,4.6,-,N/A,,Mostly Cloudy,250,2014-02-19 12:53:00
7:07 AM,60.8,55.4,82,30.02,10.0,WSW,4.6,-,N/A,,Mostly Cloudy,250,2014-02-19 13:07:00
7:53 AM,62.1,57.0,84,30.01,10.0,WSW,6.9,-,N/A,,Partly Cloudy,240,2014-02-19 13:53:00
8:45 AM,64.4,57.2,77,30.04,10.0,West,9.2,-,0.01,,Mostly Cloudy,270,2014-02-19 14:45:00
8:53 AM,64.0,57.9,80,30.04,10.0,West,11.5,-,0.01,,Mostly Cloudy,280,2014-02-19 14:53:00
9:43 AM,66.2,59.0,78,30.05,10.0,WSW,6.9,-,N/A,,Overcast,250,2014-02-19 15:43:00
9:53 AM,66.0,59.0,78,30.05,10.0,West,11.5,-,N/A,,Overcast,270,2014-02-19 15:53:00
10:36 AM,66.2,59.0,78,30.05,10.0,West,8.1,-,N/A,,Overcast,280,2014-02-19 16:36:00
10:53 AM,66.9,59.0,76,30.04,10.0,West,6.9,-,N/A,,Overcast,270,2014-02-19 16:53:00
11:53 AM,66.9,59.0,76,30.01,10.0,West,6.9,-,N/A,,Overcast,270,2014-02-19 17:53:00
12:53 PM,66.9,59.0,76,29.99,10.0,SW,10.4,-,N/A,,Overcast,220,2014-02-19 18:53:00
1:53 PM,69.1,57.9,68,29.97,10.0,WSW,5.8,-,N/A,,Overcast,240,2014-02-19 19:53:00
2:53 PM,66.9,57.9,73,29.96,10.0,SW,5.8,-,N/A,,Overcast,230,2014-02-19 20:53:00
3:45 PM,68.0,57.2,68,29.97,10.0,SW,5.8,-,N/A,,Overcast,230,2014-02-19 21:45:00
3:53 PM,68.0,57.9,70,29.97,10.0,SW,4.6,-,N/A,,Overcast,220,2014-02-19 21:53:00
4:53 PM,66.0,57.9,75,29.96,10.0,Calm,Calm,-,N/A,,Overcast,0,2014-02-19 22:53:00
5:23 PM,66.2,57.2,73,29.96,10.0,South,3.5,-,N/A,,Overcast,180,2014-02-19 23:23:00
5:48 PM,64.4,57.2,77,29.97,10.0,Calm,Calm,-,N/A,,Overcast,0,2014-02-19 23:48:00
5:53 PM,64.9,57.9,78,29.96,10.0,Calm,Calm,-,N/A,,Overcast,0,2014-02-19 23:53:00
6:53 PM,64.0,57.9,80,29.96,10.0,SSE,4.6,-,N/A,,Overcast,160,2014-02-20 00:53:00
7:53 PM,63.0,57.9,84,29.94,10.0,SSE,5.8,-,N/A,,Overcast,160,2014-02-20 01:53:00
8:53 PM,62.1,57.9,86,29.93,10.0,SSE,6.9,-,N/A,,Mostly Cloudy,160,2014-02-20 02:53:00
9:53 PM,61.0,57.9,90,29.91,9.0,South,5.8,-,N/A,,Partly Cloudy,180,2014-02-20 03:53:00
10:53 PM,60.1,57.0,90,29.91,8.0,South,3.5,-,N/A,,Clear,190,2014-02-20 04:53:00
11:53 PM,61.0,57.0,87,29.90,10.0,South,8.1,-,N/A,,Scattered Clouds,180,2014-02-20 05:53:00